Weather History for New York JFK, NY

Change the Weather History Date:

Tuesday, March 5, 2013

  Actual Average Record
Temperature  
Mean Temperature 40 °F 38 °F  
Max Temperature 48 °F 46 °F 66 °F (1985)
Min Temperature 31 °F 31 °F 14 °F (1978)
Degree Days  
Heating Degree Days 25 26  
Month to date heating degree days 134 134  
Since 1 July heating degree days 3464 3645  
Cooling Degree Days 0 0  
Month to date cooling degree days 0 0  
Year to date cooling degree days 0 0  
Moisture  
Dew Point 23 °F    
Average Humidity 55    
Maximum Humidity 76    
Minimum Humidity 34    
Precipitation  
Precipitation 0.00 in 0.11 in 0.81 in (1965)
Month to date precipitation T 0.55  
Year to date precipitation 5.12 6.30  
Snow  
Snow 0.00 in 0.20 in 6.70 in (1981)
Month to date snowfall T 0.9  
Since 1 July snowfall 13.2 20.4  
Snow Depth 0.00 in    
Sea Level Pressure  
Sea Level Pressure 30.00 in    
Wind  
Wind Speed 10 mph (North)    
Max Wind Speed 26 mph    
Max Gust Speed 31 mph    
Visibility 10 miles    
Events      
T = Trace of Precipitation, MM = Missing Value Source: NWS Daily Summary

Daily Weather History Graph

Daily Weather History Graph

Search for Another Location

Airport:

Trip Planner

Search our weather history database for the weather conditions in past years. The results will help you decide how hot, cold, wet, or windy it might be!

Date:

Astronomy

Mar. 05, 2013 Rise Set
Actual Time 6:22 AM EST 5:51 PM EST
Civil Twilight 5:55 AM EST 6:18 PM EST
Nautical Twilight 5:23 AM EST 6:50 PM EST
Astronomical Twilight 4:51 AM EST 7:21 PM EST
Moon 1:33 AM EST (3/5) 11:26 AM EST (3/5)
Length of Visible Light 12h 23m
Length of Day
11h 28m
Last Quarter, 41% of the Moon is Illuminated
Mar 5
Last Quarter
Mar 11
New
Mar 19
First Quarter
Mar 27
Full
Apr 3
Last Quarter

Hourly Weather History & Observations

Time (EST) Temp. Windchill Dew Point Humidity Pressure Visibility Wind Dir Wind Speed Gust Speed Precip Events Conditions
12:51 AM 33.1 °F 20.9 °F 18.0 °F 54% 29.92 in 10.0 mi NW 21.9 mph 31.1 mph N/A   Partly Cloudy
2:51 AM 32.0 °F 20.1 °F 19.0 °F 59% 29.93 in 10.0 mi NW 19.6 mph - N/A   Partly Cloudy
3:51 AM 32.0 °F 20.8 °F 19.0 °F 59% 29.94 in 10.0 mi NW 17.3 mph - N/A   Clear
4:51 AM 32.0 °F 20.8 °F 19.9 °F 61% 29.96 in 10.0 mi NW 17.3 mph 25.3 mph N/A   Clear
5:51 AM 32.0 °F 22.1 °F 19.9 °F 61% 29.98 in 10.0 mi NW 13.8 mph - N/A   Partly Cloudy
6:51 AM 32.0 °F 22.5 °F 19.9 °F 61% 30.00 in 10.0 mi NW 12.7 mph - N/A   Scattered Clouds
7:51 AM 34.0 °F 24.6 °F 19.9 °F 56% 30.02 in 10.0 mi NNW 13.8 mph - N/A   Scattered Clouds
8:51 AM 37.0 °F 28.5 °F 21.0 °F 52% 30.02 in 10.0 mi NNW 13.8 mph 23.0 mph N/A   Scattered Clouds
9:51 AM 39.9 °F 32.5 °F 21.0 °F 47% 30.02 in 10.0 mi NNW 12.7 mph - N/A   Scattered Clouds
10:51 AM 43.0 °F 36.8 °F 21.9 °F 43% 30.01 in 10.0 mi NNW 11.5 mph - N/A   Partly Cloudy
11:51 AM 44.1 °F 39.5 °F 21.9 °F 42% 30.00 in 10.0 mi North 8.1 mph 18.4 mph N/A   Partly Cloudy
12:51 PM 45.0 °F 41.8 °F 23.0 °F 42% 29.99 in 10.0 mi WNW 5.8 mph 17.3 mph N/A   Partly Cloudy
1:51 PM 46.9 °F - 21.9 °F 37% 29.99 in 10.0 mi North 8.1 mph - N/A   Scattered Clouds
2:51 PM 48.0 °F - 21.9 °F 36% 29.99 in 10.0 mi NNE 9.2 mph 16.1 mph N/A   Scattered Clouds
3:51 PM 48.0 °F - 21.9 °F 36% 29.99 in 10.0 mi North 11.5 mph 19.6 mph N/A   Scattered Clouds
4:51 PM 46.9 °F - 21.9 °F 37% 29.98 in 10.0 mi NE 8.1 mph - N/A   Scattered Clouds
5:51 PM 44.1 °F 42.5 °F 23.0 °F 43% 30.00 in 10.0 mi ENE 3.5 mph - N/A   Scattered Clouds
6:51 PM 39.9 °F 35.8 °F 28.0 °F 63% 30.02 in 10.0 mi SE 5.8 mph - N/A   Scattered Clouds
7:51 PM 37.9 °F - 27.0 °F 65% 30.02 in 10.0 mi Calm Calm - N/A   Scattered Clouds
8:51 PM 37.9 °F 34.4 °F 28.0 °F 68% 30.02 in 10.0 mi ESE 4.6 mph - N/A   Scattered Clouds
9:51 PM 37.9 °F 34.4 °F 28.0 °F 68% 30.02 in 10.0 mi ESE 4.6 mph - N/A   Mostly Cloudy
10:51 PM 37.9 °F 35.5 °F 30.0 °F 73% 30.02 in 10.0 mi East 3.5 mph - N/A   Mostly Cloudy
11:51 PM 39.0 °F 34.8 °F 32.0 °F 76% 30.00 in 10.0 mi East 5.8 mph - N/A   Overcast